TimeCST,TemperatureF,Dew PointF,Humidity,Sea Level PressureIn,VisibilityMPH,Wind Direction,Wind SpeedMPH,Gust SpeedMPH,PrecipitationIn,Events,Conditions,WindDirDegrees,DateUTC
12:52 AM,-6.0,-8.0,91,30.28,7.0,WNW,10.4,-,N/A,,Clear,300,2014-02-09 06:52:00
1:52 AM,-0.9,-4.0,87,30.28,10.0,NNW,13.8,-,N/A,,Partly Cloudy,330,2014-02-09 07:52:00
2:52 AM,-5.1,-8.0,87,30.30,10.0,NW,12.7,-,N/A,,Clear,320,2014-02-09 08:52:00
3:52 AM,-6.0,-9.9,83,30.30,10.0,NW,13.8,-,N/A,,Clear,320,2014-02-09 09:52:00
4:52 AM,-8.0,-11.0,86,30.31,10.0,NW,13.8,-,N/A,,Clear,320,2014-02-09 10:52:00
5:52 AM,-8.0,-11.9,83,30.34,10.0,NW,12.7,-,N/A,,Clear,310,2014-02-09 11:52:00
6:52 AM,-7.1,-11.0,83,30.35,10.0,NNW,13.8,-,N/A,,Clear,330,2014-02-09 12:52:00
7:52 AM,-9.0,-11.9,87,30.36,10.0,NNW,12.7,-,N/A,,Clear,330,2014-02-09 13:52:00
8:52 AM,-7.1,-11.0,83,30.39,10.0,NW,11.5,-,N/A,,Clear,320,2014-02-09 14:52:00
9:52 AM,-2.9,-9.0,75,30.40,10.0,NNW,16.1,-,N/A,,Clear,330,2014-02-09 15:52:00
10:52 AM,-0.9,-8.0,72,30.43,10.0,NNW,15.0,-,N/A,,Clear,330,2014-02-09 16:52:00
11:52 AM,1.0,-7.1,69,30.43,10.0,NNW,16.1,-,N/A,,Clear,340,2014-02-09 17:52:00
12:52 PM,1.9,-6.0,69,30.43,10.0,NNW,15.0,-,N/A,,Clear,330,2014-02-09 18:52:00
1:52 PM,3.0,-4.0,73,30.42,10.0,NNW,13.8,-,N/A,,Clear,330,2014-02-09 19:52:00
2:52 PM,3.0,-4.0,73,30.42,10.0,WNW,13.8,-,N/A,,Clear,300,2014-02-09 20:52:00
3:52 PM,3.0,-5.1,69,30.41,10.0,NW,13.8,-,N/A,,Clear,310,2014-02-09 21:52:00
4:52 PM,1.0,-5.1,75,30.42,10.0,WNW,9.2,-,N/A,,Clear,300,2014-02-09 22:52:00
5:49 PM,-5.8,-9.4,84,30.33,10.0,West,8.1,-,N/A,,Mostly Cloudy,270,2014-02-09 23:49:00
5:52 PM,-5.1,-9.0,83,30.45,10.0,West,8.1,-,N/A,,Mostly Cloudy,280,2014-02-09 23:52:00
6:03 PM,-4.0,-9.0,79,30.33,10.0,West,10.4,-,N/A,,Scattered Clouds,270,2014-02-10 00:03:00
6:52 PM,-5.1,-9.0,83,30.47,10.0,West,11.5,-,N/A,,Clear,280,2014-02-10 00:52:00
7:52 PM,-9.9,-13.0,86,30.48,10.0,WNW,11.5,-,N/A,,Clear,300,2014-02-10 01:52:00
8:52 PM,-11.9,-16.1,82,30.50,10.0,WNW,11.5,-,N/A,,Clear,300,2014-02-10 02:52:00
9:52 PM,-15.0,-18.0,86,30.53,10.0,West,9.2,-,N/A,,Clear,280,2014-02-10 03:52:00
10:52 PM,-17.0,-20.0,86,30.53,10.0,West,8.1,-,N/A,,Clear,280,2014-02-10 04:52:00
11:52 PM,-18.0,-20.9,87,30.53,10.0,NW,10.4,-,N/A,,Clear,310,2014-02-10 05:52:00